Flag for Israel Weather past 2 weeks in Herzliya, Israel

Now
75 °F

Scattered clouds.


Feels Like: 77 °F
Forecast: 67 / 82 °F
Wind: 13 mph from Southwest

Location: Dov Airport

Current Time: May 23, 2015 at 10:37:50 AM

Latest Report: May 23, 2015 at 9:50 AM


Visibility: N/A

Pressure: 29.92 "Hg

Humidity: 69%

Dew point: 64 °F

Location of HerzliyaLocation

Historic Weather in Herzliya — Graph

°F

Herzliya temperature yesterday

Maximum temperature yesterday: 75 °F (at 9:50 AM)
Minimum temperature yesterday: 70 °F (at 5:50 AM)
Average temperature yesterday: 73 °F

Past Weeks' High & Low Weather Summary

 TemperatureHumidityPressure
High104 °F (May 18, 12:50 PM)88% (May 11, 4:50 AM)30.15 "Hg (May 11, 4:50 AM)
Low63 °F (May 16, 5:50 AM)6% (May 18, 12:50 PM)29.62 "Hg (May 9, 5:50 PM)
Average74 °F66%29.87 "Hg
* Reported May 8 8:50 AM — May 23 8:50 AM, Herzliya, Weather by CustomWeather, © 2015

Note: Actual official high and low records may vary slightly from our data, if they occured in-between our weather recording intervals... More about our weather records

Advertising

Herzliya weather history for previous 24 hours

 ConditionsComfort  
Time TempWeatherWind HumidityBarometerVisibility
8:50 AM
Sat, May 23
73 °FPassing clouds.8 mph74%29.92 "HgN/A
7:50 AM72 °FPassing clouds.7 mph78%29.89 "HgN/A
6:50 AM70 °FBroken clouds.6 mph78%29.89 "HgN/A
6:00 AM68 °FPassing clouds.6 mph83%29.89 "HgN/A
9:50 PM
Fri, May 22
72 °FPassing clouds.8 mph73%29.92 "HgN/A
8:50 PM72 °FPassing clouds.9 mph73%29.89 "HgN/A
7:50 PM72 °FScattered clouds.9 mph73%29.89 "HgN/A
6:50 PM72 °FPassing clouds.7 mph73%29.89 "HgN/A
5:50 PM73 °FPassing clouds.8 mph69%29.89 "HgN/A
4:50 PM73 °FScattered clouds.10 mph69%29.89 "HgN/A
3:50 PM73 °FScattered clouds.10 mph69%29.92 "HgN/A
2:50 PM75 °FScattered clouds.12 mph65%29.92 "HgN/A
1:50 PM75 °FScattered clouds.10 mph65%29.92 "HgN/A
12:50 PM75 °FPassing clouds.9 mph61%29.92 "HgN/A
11:50 AM75 °FPassing clouds.9 mph61%29.92 "HgN/A
10:50 AM73 °FPassing clouds.9 mph65%29.92 "HgN/A
Weather by CustomWeather, © 2015

See weather overviewHow to use our weather pages